Time,TemperatureF,DewpointF,PressureIn,WindDirection,WindDirectionDegrees,WindSpeedMPH,WindSpeedGustMPH,Humidity,HourlyPrecipIn,Conditions,Clouds,dailyrainin,SoftwareType,DateUTC
2013-03-01 00:13:00,30.3,29.0,30.10,NNW,333,4.0,7.0,94,0.00,,,0.00,weatherlink.com 1.10,2013-03-01 06:13:00,
2013-03-01 00:28:00,30.3,29.0,30.10,NNW,338,4.0,9.0,94,0.00,,,0.00,weatherlink.com 1.10,2013-03-01 06:28:00,
2013-03-01 00:45:00,30.2,29.0,30.10,NNW,330,3.0,7.0,94,0.00,,,0.00,weatherlink.com 1.10,2013-03-01 06:45:00,
2013-03-01 00:58:00,30.2,29.0,30.10,NNE,27,2.0,6.0,95,0.00,,,0.00,weatherlink.com 1.10,2013-03-01 06:58:00,
2013-03-01 01:13:00,30.1,29.0,30.10,NNW,333,5.0,8.0,94,0.00,,,0.00,weatherlink.com 1.10,2013-03-01 07:13:00,
2013-03-01 01:28:00,30.0,29.0,30.10,NW,307,5.0,8.0,95,0.00,,,0.00,weatherlink.com 1.10,2013-03-01 07:28:00,
2013-03-01 01:43:00,29.9,29.0,30.10,NW,315,3.0,8.0,95,0.00,,,0.00,weatherlink.com 1.10,2013-03-01 07:43:00,
2013-03-01 01:58:00,29.8,29.0,30.10,NNW,336,3.0,7.0,95,0.00,,,0.00,weatherlink.com 1.10,2013-03-01 07:58:00,
2013-03-01 02:13:00,29.7,29.0,30.10,NW,321,3.0,7.0,96,0.00,,,0.00,weatherlink.com 1.10,2013-03-01 08:13:00,
2013-03-01 02:28:00,29.6,29.0,30.09,NNW,340,4.0,9.0,96,0.00,,,0.00,weatherlink.com 1.10,2013-03-01 08:28:00,
2013-03-01 02:43:00,29.5,29.0,30.09,NW,311,4.0,5.0,96,0.00,,,0.00,weatherlink.com 1.10,2013-03-01 08:43:00,
2013-03-01 02:58:00,29.4,28.0,30.09,NW,314,2.0,7.0,96,0.00,,,0.00,weatherlink.com 1.10,2013-03-01 08:58:00,
2013-03-01 03:13:00,29.3,28.0,30.09,NNW,335,4.0,8.0,95,0.00,,,0.00,weatherlink.com 1.10,2013-03-01 09:13:00,
2013-03-01 03:28:00,29.3,28.0,30.09,NW,326,4.0,8.0,95,0.00,,,0.00,weatherlink.com 1.10,2013-03-01 09:28:00,
2013-03-01 03:43:00,29.2,28.0,30.09,NW,326,5.0,8.0,95,0.00,,,0.00,weatherlink.com 1.10,2013-03-01 09:43:00,
2013-03-01 03:58:00,29.0,28.0,30.09,NW,322,2.0,5.0,96,0.00,,,0.00,weatherlink.com 1.10,2013-03-01 09:58:00,
2013-03-01 04:13:00,28.9,28.0,30.09,NNW,331,5.0,8.0,96,0.00,,,0.00,weatherlink.com 1.10,2013-03-01 10:13:00,
2013-03-01 04:28:00,28.9,28.0,30.09,NNW,329,3.0,6.0,96,0.00,,,0.00,weatherlink.com 1.10,2013-03-01 10:28:00,
2013-03-01 04:43:00,28.8,28.0,30.09,WNW,301,3.0,5.0,96,0.00,,,0.00,weatherlink.com 1.10,2013-03-01 10:43:00,
2013-03-01 04:59:00,28.7,28.0,30.09,NW,315,6.0,8.0,96,0.00,,,0.00,weatherlink.com 1.10,2013-03-01 10:59:00,
2013-03-01 05:14:00,28.6,28.0,30.10,NNW,330,6.0,10.0,96,0.00,,,0.00,weatherlink.com 1.10,2013-03-01 11:14:00,
2013-03-01 05:29:00,28.5,28.0,30.10,NNW,331,4.0,8.0,96,0.00,,,0.00,weatherlink.com 1.10,2013-03-01 11:29:00,
2013-03-01 05:44:00,28.3,27.0,30.10,NW,314,2.0,8.0,96,0.00,,,0.00,weatherlink.com 1.10,2013-03-01 11:44:00,
2013-03-01 06:00:00,28.2,27.0,30.10,NW,305,4.0,6.0,96,0.00,,,0.00,weatherlink.com 1.10,2013-03-01 12:00:00,
2013-03-01 06:14:00,28.1,27.0,30.10,NNW,335,5.0,8.0,96,0.00,,,0.00,weatherlink.com 1.10,2013-03-01 12:14:00,
2013-03-01 06:29:00,28.1,27.0,30.11,WNW,300,2.0,7.0,97,0.00,,,0.00,weatherlink.com 1.10,2013-03-01 12:29:00,
2013-03-01 06:44:00,28.0,27.0,30.11,NNW,329,4.0,7.0,97,0.00,,,0.00,weatherlink.com 1.10,2013-03-01 12:44:00,
2013-03-01 06:59:00,28.0,27.0,30.11,NNW,328,4.0,7.0,97,0.00,,,0.00,weatherlink.com 1.10,2013-03-01 12:59:00,
2013-03-01 07:14:00,28.0,27.0,30.11,WNW,302,5.0,7.0,97,0.00,,,0.00,weatherlink.com 1.10,2013-03-01 13:14:00,
2013-03-01 07:29:00,28.1,27.0,30.12,NW,323,1.0,7.0,97,0.00,,,0.00,weatherlink.com 1.10,2013-03-01 13:29:00,
2013-03-01 07:44:00,28.3,28.0,30.12,NW,318,3.0,5.0,97,0.00,,,0.00,weatherlink.com 1.10,2013-03-01 13:44:00,
2013-03-01 07:59:00,28.5,28.0,30.12,NNW,347,5.0,8.0,97,0.00,,,0.00,weatherlink.com 1.10,2013-03-01 13:59:00,
2013-03-01 08:14:00,28.6,28.0,30.13,NNW,335,5.0,8.0,96,0.00,,,0.00,weatherlink.com 1.10,2013-03-01 14:14:00,
2013-03-01 08:29:00,29.0,28.0,30.13,NW,312,3.0,7.0,96,0.00,,,0.00,weatherlink.com 1.10,2013-03-01 14:29:00,
2013-03-01 08:44:00,29.1,28.0,30.13,NW,317,5.0,12.0,95,0.00,,,0.00,weatherlink.com 1.10,2013-03-01 14:44:00,
2013-03-01 08:59:00,29.1,28.0,30.13,NNW,340,6.0,8.0,95,0.00,,,0.00,weatherlink.com 1.10,2013-03-01 14:59:00,
2013-03-01 09:14:00,29.3,28.0,30.13,NNW,338,2.0,8.0,95,0.00,,,0.00,weatherlink.com 1.10,2013-03-01 15:14:00,
2013-03-01 09:29:00,29.4,28.0,30.14,NW,314,4.0,9.0,95,0.00,,,0.00,weatherlink.com 1.10,2013-03-01 15:29:00,
2013-03-01 09:44:00,29.7,29.0,30.14,North,10,5.0,8.0,95,0.00,,,0.00,weatherlink.com 1.10,2013-03-01 15:44:00,
2013-03-01 09:59:00,29.8,28.0,30.14,NNW,342,7.0,10.0,94,0.00,,,0.00,weatherlink.com 1.10,2013-03-01 15:59:00,
2013-03-01 10:14:00,30.0,28.0,30.14,North,350,7.0,10.0,93,0.00,,,0.00,weatherlink.com 1.10,2013-03-01 16:14:00,
2013-03-01 10:29:00,30.4,29.0,30.14,NNW,333,7.0,9.0,94,0.00,,,0.00,weatherlink.com 1.10,2013-03-01 16:29:00,
2013-03-01 10:44:00,30.4,29.0,30.14,North,350,8.0,9.0,93,0.00,,,0.00,weatherlink.com 1.10,2013-03-01 16:44:00,
2013-03-01 10:59:00,30.9,29.0,30.14,NNW,343,2.0,8.0,93,0.00,,,0.00,weatherlink.com 1.10,2013-03-01 16:59:00,
2013-03-01 11:14:00,31.7,30.0,30.14,WNW,300,6.0,11.0,92,0.00,,,0.00,weatherlink.com 1.10,2013-03-01 17:14:00,
2013-03-01 11:29:00,31.2,29.0,30.14,NW,315,6.0,9.0,92,0.00,,,0.00,weatherlink.com 1.10,2013-03-01 17:29:00,
2013-03-01 11:44:00,31.1,29.0,30.15,NNW,333,6.0,10.0,92,0.00,,,0.00,weatherlink.com 1.10,2013-03-01 17:44:00,
2013-03-01 11:59:00,31.2,29.0,30.15,NW,319,5.0,8.0,92,0.00,,,0.00,weatherlink.com 1.10,2013-03-01 17:59:00,
2013-03-01 12:14:00,31.6,30.0,30.14,NNW,331,3.0,7.0,92,0.01,,,0.01,weatherlink.com 1.10,2013-03-01 18:14:00,
2013-03-01 12:29:00,32.1,30.0,30.14,NNE,28,6.0,9.0,90,0.01,,,0.01,weatherlink.com 1.10,2013-03-01 18:29:00,
2013-03-01 12:44:00,32.1,30.0,30.14,NNE,22,5.0,8.0,90,0.01,,,0.01,weatherlink.com 1.10,2013-03-01 18:44:00,
2013-03-01 12:59:00,32.1,29.0,30.14,NNW,333,4.0,8.0,88,0.01,,,0.01,weatherlink.com 1.10,2013-03-01 18:59:00,
2013-03-01 13:14:00,32.4,29.0,30.14,NW,315,5.0,9.0,87,0.00,,,0.01,weatherlink.com 1.10,2013-03-01 19:14:00,
2013-03-01 13:29:00,31.9,28.0,30.14,NW,326,4.0,11.0,85,0.00,,,0.01,weatherlink.com 1.10,2013-03-01 19:29:00,
2013-03-01 13:44:00,31.9,28.0,30.14,WNW,298,7.0,13.0,84,0.00,,,0.01,weatherlink.com 1.10,2013-03-01 19:44:00,
2013-03-01 13:59:00,32.3,28.0,30.13,NW,321,9.0,9.0,84,0.00,,,0.01,weatherlink.com 1.10,2013-03-01 19:59:00,
2013-03-01 14:14:00,32.2,28.0,30.14,NNW,345,7.0,13.0,84,0.00,,,0.01,weatherlink.com 1.10,2013-03-01 20:14:00,
2013-03-01 14:29:00,32.2,28.0,30.14,NNE,25,5.0,11.0,84,0.00,,,0.01,weatherlink.com 1.10,2013-03-01 20:29:00,
2013-03-01 14:44:00,31.8,27.0,30.14,NW,325,4.0,12.0,83,0.00,,,0.01,weatherlink.com 1.10,2013-03-01 20:44:00,
2013-03-01 14:59:00,31.8,27.0,30.14,NNW,343,6.0,12.0,82,0.00,,,0.01,weatherlink.com 1.10,2013-03-01 20:59:00,
2013-03-01 15:14:00,32.0,27.0,30.14,NNW,339,10.0,13.0,81,0.00,,,0.01,weatherlink.com 1.10,2013-03-01 21:14:00,
2013-03-01 15:29:00,31.7,27.0,30.15,NNE,13,9.0,15.0,84,0.00,,,0.01,weatherlink.com 1.10,2013-03-01 21:29:00,
2013-03-01 15:44:00,31.3,28.0,30.15,NNW,341,3.0,10.0,87,0.00,,,0.01,weatherlink.com 1.10,2013-03-01 21:44:00,
2013-03-01 15:59:00,31.0,27.0,30.16,NNW,342,5.0,13.0,86,0.00,,,0.01,weatherlink.com 1.10,2013-03-01 21:59:00,
2013-03-01 16:14:00,30.7,27.0,30.16,NNW,332,8.0,10.0,86,0.00,,,0.01,weatherlink.com 1.10,2013-03-01 22:14:00,
2013-03-01 16:45:00,30.5,27.0,30.17,NNW,337,6.0,11.0,86,0.00,,,0.01,weatherlink.com 1.10,2013-03-01 22:45:00,
2013-03-01 17:00:00,30.6,26.0,30.17,NNW,335,3.0,12.0,83,0.00,,,0.01,weatherlink.com 1.10,2013-03-01 23:00:00,
2013-03-01 17:15:00,30.5,26.0,30.17,NNW,338,6.0,11.0,83,0.00,,,0.01,weatherlink.com 1.10,2013-03-01 23:15:00,
2013-03-01 17:30:00,30.2,26.0,30.18,NNW,337,10.0,16.0,84,0.00,,,0.01,weatherlink.com 1.10,2013-03-01 23:30:00,
2013-03-01 17:45:00,29.6,26.0,30.18,NW,314,8.0,15.0,85,0.00,,,0.01,weatherlink.com 1.10,2013-03-01 23:45:00,
2013-03-01 18:00:00,29.4,26.0,30.19,NNE,32,1.0,13.0,87,0.00,,,0.01,weatherlink.com 1.10,2013-03-02 00:00:00,
2013-03-01 18:15:00,29.4,26.0,30.19,North,6,6.0,11.0,87,0.00,,,0.01,weatherlink.com 1.10,2013-03-02 00:15:00,
2013-03-01 18:30:00,29.3,26.0,30.20,NNE,22,4.0,12.0,87,0.00,,,0.01,weatherlink.com 1.10,2013-03-02 00:30:00,
2013-03-01 18:45:00,29.4,26.0,30.20,NNE,19,5.0,9.0,87,0.00,,,0.01,weatherlink.com 1.10,2013-03-02 00:45:00,
2013-03-01 19:00:00,28.9,26.0,30.21,NNE,28,4.0,8.0,89,0.00,,,0.01,weatherlink.com 1.10,2013-03-02 01:00:00,
2013-03-01 19:15:00,28.7,26.0,30.21,NNE,13,5.0,9.0,88,0.00,,,0.01,weatherlink.com 1.10,2013-03-02 01:15:00,
2013-03-01 19:30:00,28.4,26.0,30.21,North,352,3.0,7.0,89,0.00,,,0.01,weatherlink.com 1.10,2013-03-02 01:30:00,
2013-03-01 19:45:00,28.3,26.0,30.21,NW,321,5.0,8.0,90,0.00,,,0.01,weatherlink.com 1.10,2013-03-02 01:45:00,
2013-03-01 20:00:00,28.3,26.0,30.21,NNE,12,5.0,7.0,90,0.00,,,0.01,weatherlink.com 1.10,2013-03-02 02:00:00,
2013-03-01 20:15:00,28.3,26.0,30.21,NNW,341,4.0,8.0,89,0.00,,,0.01,weatherlink.com 1.10,2013-03-02 02:15:00,
2013-03-01 20:30:00,28.5,25.0,30.21,NNE,24,9.0,11.0,88,0.00,,,0.01,weatherlink.com 1.10,2013-03-02 02:30:00,
2013-03-01 20:45:00,28.5,25.0,30.21,NNW,345,8.0,10.0,88,0.00,,,0.01,weatherlink.com 1.10,2013-03-02 02:45:00,
2013-03-01 21:00:00,28.5,25.0,30.22,NNW,345,5.0,11.0,87,0.00,,,0.01,weatherlink.com 1.10,2013-03-02 03:00:00,
2013-03-01 21:15:00,28.4,25.0,30.22,NNW,330,6.0,12.0,87,0.00,,,0.01,weatherlink.com 1.10,2013-03-02 03:15:00,
2013-03-01 21:30:00,28.1,25.0,30.22,North,6,10.0,14.0,88,0.00,,,0.01,weatherlink.com 1.10,2013-03-02 03:30:00,
2013-03-01 21:45:00,27.7,25.0,30.22,NNE,20,9.0,12.0,90,0.00,,,0.01,weatherlink.com 1.10,2013-03-02 03:45:00,
2013-03-01 22:00:00,27.5,25.0,30.22,NNW,334,5.0,10.0,91,0.00,,,0.01,weatherlink.com 1.10,2013-03-02 04:00:00,
2013-03-01 22:15:00,27.6,25.0,30.22,NNW,335,9.0,11.0,89,0.00,,,0.01,weatherlink.com 1.10,2013-03-02 04:15:00,
2013-03-01 22:30:00,27.8,25.0,30.22,NNW,343,5.0,9.0,88,0.00,,,0.01,weatherlink.com 1.10,2013-03-02 04:30:00,
2013-03-01 22:45:00,27.8,24.0,30.22,North,352,11.0,12.0,86,0.00,,,0.01,weatherlink.com 1.10,2013-03-02 04:45:00,
2013-03-01 23:00:00,27.7,24.0,30.23,North,360,6.0,12.0,85,0.00,,,0.01,weatherlink.com 1.10,2013-03-02 05:00:00,
2013-03-01 23:15:00,27.4,24.0,30.22,NNW,335,2.0,8.0,85,0.00,,,0.01,weatherlink.com 1.10,2013-03-02 05:15:00,
2013-03-01 23:30:00,27.2,23.0,30.22,North,351,9.0,11.0,85,0.00,,,0.00,weatherlink.com 1.10,2013-03-02 05:30:00,
2013-03-01 23:45:00,27.1,23.0,30.23,NNW,333,5.0,9.0,85,0.00,,,0.00,weatherlink.com 1.10,2013-03-02 05:45:00,